Location: Julian California
(33.0790°N, 116.6010°W)
Time: 20:38:24
(UTC-07:00)

CARTOSAT-1 - Pass Details

Date: 14 June 2018
Orbit: 616 x 621 km, 97.8° (Epoch: 18 August)

Event Time Altitude Azimuth Distance (km) Brightness Sun altitude
Exits shadow 23:02:33 47° 313° (NW) 816 4.4 -28.4°
Drops below altitude 10° 23:05:51 10° 341° (NNW) 1,985 7.1 -28.7°
Sets 23:08:04 0° 344° (NNW) 2,895 8.2 -28.9°
